User: anonymous   Login
Location: Aufkirchen
(47.9603°N, 11.3653°E)
Time: 22:20:58
(UTC+01:00)
Language:

CAS-4A - Orbit

View from above orbital plane
View from above orbital plane
View from above satellite
View from above satellite

Ground track
Ground track

The orbit data is extracted from the following two-line orbital elements,

1 42761U 17034D   21016.51107466  .00000413  00000-0  38249-4 0  9993
2 42761  43.0191 295.4599 0011648 293.0553 235.8534 15.10124827198177
Epoch (UTC): 16 January 2021 12:15:56
Eccentricity: 0.0011648
inclination: 43.0191°
perigee height: 528 km
apogee height: 544 km
right ascension of ascending node: 295.4599°
argument of perigee: 293.0553°
revolutions per day: 15.10124827
mean anomaly at epoch: 235.8534°
orbit number at epoch: 19817

The dashed part of the orbit path shows where the satellite is in the earth's shadow,  

DLR